Sacramento, CA

12:22 AM PDT on August 18, 2017 (GMT -0700)
Sacramento Executive

Weather History for KSAC - June, 2013

Change the Weather History Date:

Sunday, June 23, 2013

  Actual Average Record
Temperature  
Mean Temperature 70 °F -  
Max Temperature 79 °F 89 °F 105 °F (1964)
Min Temperature 60 °F 57 °F 48 °F (1955)
Degree Days  
Heating Degree Days 0    
Cooling Degree Days 5    
Growing Degree Days 19 (Base 50)    
Moisture  
Dew Point 55 °F    
Average Humidity 63    
Maximum Humidity 78    
Minimum Humidity 48    
Precipitation  
Precipitation 0.00 in 0.01 in 0.04 in (1944)
Month to date precipitation 0.00 0.20  
Year to date precipitation 3.69 11.89  
Since 1 July precipitation 14.98  
Sea Level Pressure  
Sea Level Pressure 29.79 in    
Wind  
Wind Speed 9 mph (SSW)    
Max Wind Speed 22 mph    
Max Gust Speed 29 mph    
Visibility 10 miles    
Events      
T = Trace of Precipitation, MM = Missing Value Source: NWS Daily Summary

Daily Weather History Graph

Daily Weather History Graph

Search for Another Location

Airport or City:

Trip Planner

Search our weather history database for the weather conditions in past years. The results will help you decide how hot, cold, wet, or windy it might be!

Date:

Astronomy

Jun. 23, 2013 Rise Set
Actual Time 5:42 AM PDT 8:33 PM PDT
Civil Twilight 5:10 AM PDT 9:05 PM PDT
Nautical Twilight 4:30 AM PDT 9:45 PM PDT
Astronomical Twilight 3:44 AM PDT 10:31 PM PDT
Moon 8:52 PM PDT (6/23) 6:05 AM PDT (6/23)
Length of Visible Light 15h 54m
Length of Day
14h 51m
Full, 100% of the Moon is Illuminated
Jun 23
Full
Jun 29
Last Quarter
Jul 8
New
Jul 15
First Quarter
Jul 22
Full

Hourly Weather History & Observations

Time (PDT) Temp. Dew Point Humidity Pressure Visibility Wind Dir Wind Speed Gust Speed Precip Events Conditions
12:53 AM 64.9 °F 51.1 °F 61% 29.78 in 10.0 mi South 6.9 mph - N/A   Clear
1:53 AM 64.0 °F 51.1 °F 63% 29.78 in 10.0 mi South 6.9 mph - N/A   Clear
2:53 AM 62.1 °F 52.0 °F 70% 29.77 in 10.0 mi South 8.1 mph - N/A   Clear
3:53 AM 61.0 °F 52.0 °F 72% 29.77 in 10.0 mi Variable 5.8 mph - N/A   Clear
4:53 AM 60.1 °F 52.0 °F 75% 29.77 in 10.0 mi South 8.1 mph - N/A   Clear
5:53 AM 60.1 °F 53.1 °F 78% 29.77 in 10.0 mi SSE 4.6 mph - N/A   Clear
6:53 AM 61.0 °F 54.0 °F 78% 29.78 in 10.0 mi South 6.9 mph - N/A   Clear
7:53 AM 63.0 °F 54.0 °F 72% 29.79 in 10.0 mi South 8.1 mph - N/A   Clear
8:53 AM 64.9 °F 55.0 °F 70% 29.80 in 10.0 mi South 6.9 mph - N/A   Clear
9:53 AM 68.0 °F 55.0 °F 63% 29.81 in 10.0 mi South 8.1 mph - N/A   Clear
10:53 AM 66.0 °F 54.0 °F 65% 29.83 in 10.0 mi South 5.8 mph - N/A   Clear
11:53 AM 66.9 °F 55.0 °F 66% 29.83 in 10.0 mi South 3.5 mph - N/A   Clear
12:53 PM 73.9 °F 54.0 °F 50% 29.82 in 10.0 mi SSW 8.1 mph - N/A   Clear
1:53 PM 73.0 °F 55.9 °F 55% 29.81 in 10.0 mi SW 20.7 mph 28.8 mph N/A   Clear
2:53 PM 78.1 °F 57.0 °F 48% 29.80 in 10.0 mi SW 16.1 mph 20.7 mph N/A   Clear
3:53 PM 75.0 °F 57.9 °F 55% 29.79 in 10.0 mi West 18.4 mph - N/A   Mostly Cloudy
4:53 PM 73.0 °F 57.9 °F 59% 29.79 in 10.0 mi WSW 17.3 mph 24.2 mph N/A   Overcast
5:53 PM 71.1 °F 57.9 °F 63% 29.80 in 10.0 mi SW 16.1 mph 25.3 mph 0.00 in   Overcast
6:53 PM 70.0 °F 57.0 °F 63% 29.79 in 10.0 mi SW 8.1 mph 18.4 mph N/A   Overcast
7:53 PM 70.0 °F 57.0 °F 63% 29.79 in 10.0 mi SW 17.3 mph 23.0 mph N/A   Overcast
8:53 PM 66.9 °F 57.0 °F 70% 29.79 in 10.0 mi SSW 8.1 mph 18.4 mph N/A   Overcast
9:53 PM 64.0 °F 57.0 °F 78% 29.80 in 10.0 mi South 5.8 mph - N/A   Clear
10:53 PM 64.0 °F 57.0 °F 78% 29.80 in 10.0 mi SW 9.2 mph 27.6 mph N/A   Scattered Clouds
11:53 PM 63.0 °F 57.0 °F 81% 29.80 in 10.0 mi North - - N/A   Mostly Cloudy